DMSP 5D-3 F19 (USA 249)

Satellite information

Favourite Embed

Satellite Type and Status

PAYLOADIN ORBIT

Key statistics

Satellite DMSP 5D-3 F19 (USA 249) at a glance.

Uptime

4051

Days in orbit

Revolutions

≈ 14.1

Per day

Orbit

SSO

Sun Synchronous Orbit

Inclination

98.8

Latest

Satellite identification and parameters

Extended collection of information and parameters for DMSP 5D-3 F19 (USA 249).

Object identification

Identified? True

Debris? False

Object name: DMSP 5D-3 F19 (USA 249)

International designator: 2014-015A

Object number (NORAD): 39630

Object ID (CCSDS): 39630

Country: UNITED STATES OF AMERICA (US)

Current information (Y/N): Y

RCS size: LARGE

Orbital parameters

Period: 101.782 minutes

Inclination: 98.7688 deg

SMA: 7221.149 km

Apoapsis: 849.739 km

Periapsis: 836.289 km

RAAN: 127.5434 deg

Eccentricy: 0.0009313

Argument of periapsis: 293.1659 deg

Mean anomaly: 66.8533 deg

Mean motion: 14.14794346 rev/day

Mean motion (dot): 0.00000251 rev/day2

B* drag term: 0.0001528 1/REarth

Two-line elements (TLE)

Creation date: May 5, 2025, 10:46 p.m.

Reference frame: TEME

Reference center: EARTH

Epoch: May 5, 2025, 9:37 p.m. UTC

TLE line 0: 0 DMSP 5D-3 F19 (USA 249)

TLE line 1: 1 39630U 14015A 25125.90131577 .00000251 00000-0 15280-3 0 9997

TLE line 2: 2 39630 98.7688 127.5434 0009313 293.1659 66.8533 14.14794346572385

Live tracking on map

Real-time ground track for satellite DMSP 5D-3 F19 (USA 249).

In-orbit conjunctions

There are no conjunctions computed for DMSP 5D-3 F19 (USA 249), at the moment. Check back to stay up to date, as we update our databases every day.

Go to all conjunctions

Associated space launch

DMSP-5D3 (Defense Meteorological Satellite Program Block 5D3) is the eleventh and most recent version of the military meteorological satellites of the Defense Meteorological Satellite Program.

DMSP 5D-3 F19 (USA 249) was lifted into orbit during the mission ‘Atlas V 401 | DMSP-5D3 F19’, on board a Atlas V 401 space rocket.

The launch took place on April 3, 2014, 2:46 p.m. from Space Launch Complex 3E.

For more information about the launch, click the button.

Launch to space Atlas V 401 | DMSP-5D3 F19
Atlas V 401 | DMSP-5D3 F19

Agency: N/A

Status: Launch Successful

Launch date: April 3, 2014, 2:46 p.m. UTC

Rocket: Atlas V 401

Launch pad: Space Launch Complex 3E

Location: Vandenberg SFB, CA, USA

...

Latest news about this satellite

There are no fresh news available about this satellite. Check back as we update our databases every day.


Newsletter sign-up

Weekly statistics, charts and insights to help you stay on top of the space industry.